Terminal Aerodrome Forecast
Issued by NWS

Home | Current Version | Previous Version | Graphics & Text | Print | Product List | Glossary On
Versions: 1 2 3 4 5 6 7 8 9 10 11 12 13
000
FTUS45 KGGW 120500
TAFSDY
TAF
KSDY 120520Z 1206/1306 VRB03KT P6SM SKC
     FM121600 20010KT P6SM SKC
     FM130100 VRB04KT P6SM SCT200
      AMD LTD TO CLD VIS AND WIND=

USA.gov is the U.S. government's official web portal to all federal, state and local government web resources and services.